Weather History for Lambertville, MI

Change the Weather History Date:

Tuesday, February 12, 2013

  Actual Average (KTOL) Record (KTOL)
Temperature  
Mean Temperature 33 °F 28 °F  
Max Temperature 35 °F 35 °F 61 °F (1984)
Min Temperature 31 °F 20 °F -14 °F (2014)
Degree Days  
Heating Degree Days 32 38  
Month to date heating degree days 462  
Since 1 July heating degree days 4011  
Cooling Degree Days 0 0  
Month to date cooling degree days 0  
Year to date cooling degree days 0  
Moisture  
Dew Point 23 °F    
Average Humidity 68    
Maximum Humidity 74    
Minimum Humidity 61    
Precipitation  
Precipitation 0.00 in 0.08 in 0.48 in (1993)
Month to date precipitation 0.84  
Year to date precipitation 2.89  
Snow  
Snow 0.00 in 0.40 in - ()
Month to date snowfall 4.4  
Since 1 July snowfall 25.5  
Snow Depth -    
Sea Level Pressure  
Sea Level Pressure 29.99 in    
Wind  
Wind Speed 10 mph (West)    
Max Wind Speed 17 mph    
Max Gust Speed 25 mph    
Visibility 10 miles    
Events      
T = Trace of Precipitation, MM = Missing Value Source: NWS Daily Summary

Daily Weather History Graph

Daily Weather History Graph

Search for Another Location

Airport:

Trip Planner

Search our weather history database for the weather conditions in past years. The results will help you decide how hot, cold, wet, or windy it might be!

Date:

Astronomy

Feb. 12, 2013 Rise Set
Actual Time 7:33 AM EST 6:04 PM EST
Civil Twilight 7:05 AM EST 6:33 PM EST
Nautical Twilight 6:32 AM EST 7:05 PM EST
Astronomical Twilight 6:00 AM EST 7:38 PM EST
Moon 8:27 AM EST (2/12) 9:07 PM EST (2/12)
Length of Visible Light 11h 28m
Length of Day
10h 30m
Waxing Crescent, 7% of the Moon is Illuminated
Feb 12
Waxing Crescent
Feb 17
First Quarter
Feb 25
Full
Mar 4
Last Quarter
Mar 11
New

Hourly Weather History & Observations

Time (EST) Temp. Windchill Dew Point Humidity Pressure Visibility Wind Dir Wind Speed Gust Speed Precip Events Conditions
12:15 AM 32.9 °F 22.8 °F 22.8 °F 66% 29.92 in 10.0 mi West 15.0 mph 25.3 mph N/A   Overcast
12:35 AM 32.9 °F 23.2 °F 22.6 °F 66% 29.93 in 10.0 mi West 13.8 mph 24.2 mph N/A   Overcast
12:55 AM 32.5 °F 21.5 °F 22.5 °F 66% 29.93 in 10.0 mi West 17.3 mph 21.9 mph N/A   Overcast
1:15 AM 32.5 °F 22.3 °F 22.5 °F 66% 29.94 in 10.0 mi West 15.0 mph 23.0 mph N/A   Overcast
1:35 AM 32.4 °F 26.0 °F 23.0 °F 68% 29.95 in 10.0 mi West 6.9 mph - N/A   Overcast
1:55 AM 32.4 °F 23.0 °F 23.0 °F 68% 29.95 in 10.0 mi West 12.7 mph 18.4 mph N/A   Overcast
2:15 AM 32.2 °F 21.8 °F 23.0 °F 69% 29.96 in 10.0 mi West 15.0 mph 20.7 mph N/A   Overcast
2:35 AM 32.2 °F 22.7 °F 22.8 °F 68% 29.96 in 10.0 mi West 12.7 mph 18.4 mph N/A   Overcast
2:55 AM 32.0 °F 22.5 °F 22.5 °F 68% 29.98 in 10.0 mi West 12.7 mph 19.6 mph N/A   Overcast
3:15 AM 32.0 °F 23.6 °F 22.5 °F 68% 29.98 in 10.0 mi West 10.4 mph 17.3 mph N/A   Overcast
3:35 AM 32.0 °F 23.0 °F 22.6 °F 68% 29.98 in 10.0 mi West 11.5 mph 16.1 mph N/A   Overcast
3:55 AM 32.0 °F 23.6 °F 22.5 °F 68% 29.99 in 10.0 mi West 10.4 mph 18.4 mph N/A   Overcast
4:15 AM 32.0 °F 23.6 °F 22.8 °F 69% 29.99 in 10.0 mi West 10.4 mph 16.1 mph N/A   Overcast
4:35 AM 32.0 °F 24.2 °F 23.0 °F 69% 29.99 in 10.0 mi West 9.2 mph - N/A   Overcast
4:55 AM 32.0 °F 23.6 °F 23.0 °F 69% 30.00 in 10.0 mi West 10.4 mph 16.1 mph N/A   Overcast
5:15 AM 32.0 °F 24.2 °F 23.0 °F 69% 30.00 in 10.0 mi West 9.2 mph - N/A   Overcast
5:35 AM 32.0 °F 24.2 °F 23.0 °F 69% 30.01 in 10.0 mi West 9.2 mph 16.1 mph N/A   Overcast
5:55 AM 32.0 °F 23.0 °F 23.0 °F 69% 30.01 in 10.0 mi West 11.5 mph - N/A   Overcast
6:15 AM 32.0 °F 22.5 °F 22.6 °F 68% 30.02 in 10.0 mi West 12.7 mph 18.4 mph N/A   Overcast
6:35 AM 32.0 °F 23.6 °F 22.1 °F 67% 30.03 in 10.0 mi West 10.4 mph 18.4 mph N/A   Overcast
6:55 AM 32.0 °F 24.8 °F 22.6 °F 68% 30.03 in 10.0 mi West 8.1 mph - N/A   Overcast
7:15 AM 32.0 °F 24.8 °F 23.2 °F 70% 30.04 in 10.0 mi West 8.1 mph - N/A   Overcast
7:35 AM 31.8 °F 23.9 °F 23.7 °F 72% 30.04 in 10.0 mi West 9.2 mph - N/A   Overcast
7:55 AM 31.6 °F 23.7 °F 23.0 °F 70% 30.05 in 10.0 mi West 9.2 mph 16.1 mph N/A   Overcast
8:15 AM 31.6 °F 23.7 °F 23.0 °F 70% 30.05 in 10.0 mi West 9.2 mph - N/A   Overcast
8:35 AM 31.5 °F 22.9 °F 23.0 °F 71% 30.05 in 10.0 mi West 10.4 mph - N/A   Overcast
8:55 AM 31.6 °F 22.6 °F 23.0 °F 70% 30.06 in 10.0 mi West 11.5 mph - N/A   Overcast
9:15 AM 31.6 °F 23.7 °F 22.6 °F 69% 30.06 in 10.0 mi West 9.2 mph - N/A   Overcast
9:35 AM 31.8 °F 25.4 °F 22.1 °F 67% 30.06 in 10.0 mi West 6.9 mph - N/A   Overcast
9:55 AM 32.0 °F 24.8 °F 22.6 °F 68% 30.07 in 10.0 mi West 8.1 mph - N/A   Overcast
10:15 AM 31.8 °F 24.6 °F 23.0 °F 70% 30.07 in 10.0 mi West 8.1 mph - N/A   Overcast
10:34 AM 31.8 °F 22.3 °F 22.8 °F 69% 30.07 in 10.0 mi West 12.7 mph 16.1 mph N/A   Overcast
10:55 AM 32.0 °F 24.2 °F 22.8 °F 69% 30.07 in 10.0 mi West 9.2 mph - N/A   Overcast
11:15 AM 32.0 °F 25.6 °F 22.1 °F 67% 30.06 in 10.0 mi West 6.9 mph - N/A   Overcast
11:35 AM 32.0 °F 24.2 °F 22.1 °F 67% 30.06 in 10.0 mi WSW 9.2 mph - N/A   Overcast
11:55 AM 32.2 °F 23.8 °F 22.3 °F 67% 30.06 in 10.0 mi West 10.4 mph - N/A   Overcast
12:15 PM 32.7 °F 26.4 °F 22.5 °F 66% 30.07 in 10.0 mi WSW 6.9 mph - N/A   Overcast
12:35 PM 33.1 °F 25.5 °F 22.6 °F 66% 30.05 in 10.0 mi WSW 9.2 mph - N/A   Overcast
12:55 PM 33.4 °F 26.6 °F 22.6 °F 65% 30.03 in 10.0 mi WSW 8.1 mph - N/A   Overcast
1:15 PM 33.8 °F 26.4 °F 22.8 °F 64% 30.00 in 10.0 mi West 9.2 mph 16.1 mph N/A   Overcast
1:35 PM 33.8 °F 27.7 °F 23.2 °F 65% 29.98 in 10.0 mi West 6.9 mph - N/A   Overcast
1:55 PM 33.6 °F 26.8 °F 23.5 °F 67% 29.97 in 10.0 mi West 8.1 mph - N/A   Overcast
2:15 PM 35.1 °F 28.6 °F 23.2 °F 62% 29.96 in 10.0 mi West 8.1 mph - N/A   Overcast
2:35 PM 34.0 °F 26.0 °F 22.3 °F 62% 29.98 in 10.0 mi West 10.4 mph - N/A   Mostly Cloudy
2:55 PM 35.4 °F 27.8 °F 23.2 °F 61% 29.98 in 10.0 mi WSW 10.4 mph - N/A   Overcast
3:15 PM 34.9 °F 28.3 °F 22.8 °F 61% 29.98 in 10.0 mi WSW 8.1 mph - N/A   Overcast
3:35 PM 34.9 °F 26.6 °F 23.0 °F 62% 29.98 in 10.0 mi WSW 11.5 mph 16.1 mph N/A   Overcast
3:55 PM 34.9 °F 29.0 °F 23.0 °F 62% 29.98 in 10.0 mi WSW 6.9 mph - N/A   Overcast
4:15 PM 34.7 °F 26.9 °F 23.7 °F 64% 29.98 in 10.0 mi WSW 10.4 mph - N/A   Overcast
4:35 PM 34.7 °F 28.8 °F 23.0 °F 62% 29.99 in 10.0 mi SW 6.9 mph - N/A   Overcast
4:55 PM 34.7 °F 27.5 °F 23.0 °F 62% 29.98 in 10.0 mi SW 9.2 mph - N/A   Overcast
5:15 PM 34.7 °F 28.8 °F 23.2 °F 63% 29.98 in 10.0 mi WSW 6.9 mph - N/A   Overcast
5:35 PM 34.7 °F 30.6 °F 23.7 °F 64% 29.97 in 10.0 mi WSW 4.6 mph - N/A   Overcast
5:55 PM 34.7 °F 31.8 °F 23.9 °F 65% 29.98 in 10.0 mi WSW 3.5 mph - N/A   Overcast
6:15 PM 34.3 °F - 24.4 °F 67% 29.97 in 10.0 mi Calm Calm - N/A   Overcast
6:35 PM 34.2 °F 31.2 °F 24.4 °F 68% 29.97 in 10.0 mi SW 3.5 mph - N/A   Overcast
6:55 PM 34.3 °F - 24.8 °F 68% 29.97 in 10.0 mi Calm Calm - N/A   Overcast
7:06 PM 33.8 °F - 25.0 °F 70% 29.96 in 10.0 mi Calm Calm - N/A   Overcast
7:40 PM - - - N/A% - 10.0 mi NW 3.5 mph - N/A   Unknown
7:57 PM - - - N/A% - - North - - N/A   Unknown
8:12 PM 32.9 °F - 25.3 °F 74% 29.96 in 10.0 mi Calm Calm - N/A   Overcast
8:35 PM 32.9 °F - 24.6 °F 72% 29.95 in 10.0 mi Calm Calm - N/A   Overcast
8:55 PM 32.9 °F - 24.4 °F 71% 29.95 in 10.0 mi Calm Calm - N/A   Overcast
9:15 PM 32.5 °F 29.3 °F 24.3 °F 72% 29.95 in 10.0 mi NW 3.5 mph - N/A   Overcast
9:35 PM 32.2 °F 28.9 °F 24.3 °F 73% 29.94 in 10.0 mi WNW 3.5 mph - N/A   Overcast
9:55 PM 32.0 °F 28.7 °F 23.2 °F 70% 29.94 in 10.0 mi WNW 3.5 mph - N/A   Overcast
10:15 PM 31.5 °F 25.8 °F 22.8 °F 70% 29.94 in 10.0 mi West 5.8 mph - N/A   Mostly Cloudy
10:35 PM 31.5 °F - 22.5 °F 69% 29.93 in 10.0 mi Calm Calm - N/A   Mostly Cloudy
10:55 PM 31.5 °F 28.1 °F 22.6 °F 70% 29.93 in 10.0 mi WNW 3.5 mph - N/A   Overcast
11:15 PM 31.3 °F 27.9 °F 22.3 °F 69% 29.93 in 10.0 mi NW 3.5 mph - N/A   Overcast
11:35 PM 31.5 °F 25.8 °F 22.3 °F 69% 29.93 in 10.0 mi WNW 5.8 mph - N/A   Overcast
11:55 PM 31.3 °F 27.9 °F 22.8 °F 71% 29.93 in 10.0 mi WNW 3.5 mph - N/A   Overcast